sat.trackr.live / text

‹ back to catalog

KOMPSAT-7

NORAD 66820 · 2025-279A

PAYLOAD ACTIVE UNKNOWN

§ Identity

Operator
Country
SKOR
Launch date
2025-12-01
Launch site
FRGUI
Launch vehicle
Mass (kg)
RCS (m²)

External: N2YO · Heavens-Above · Gunter

§ Orbital elements

Epoch: 2026-09-20T03:23:47.873184Z

Period
95.92 min
Inclination
97.7412°
Eccentricity
0.0013678
Mean motion
15.01257689 rev/d
Perigee alt
553.5 km
Apogee alt
572.5 km
Semi-major
6,941.2 km
B*
6.3091e-5
RAAN
211.1017°
Arg perigee
54.3577°
Mean anomaly
305.8918°
Rev number
4,386

§ Raw data

KOMPSAT-71 66820U 25279A   26263.14152631  .00000751  00000+0  63091-4 0  99942 66820  97.7412 211.1017 0013678  54.3577 305.8918 15.01257689 43862

JSON: /api/v1/satellites/66820 · /tle

For live sub-satellite position, see the globe view (requires WebGL).

§ Visibility from observer

Set your observer location to see the next 7 days of passes ≥ 10°. The values pass through the URL so the page stays shareable.

No JS? Fill the form by hand. The geolocation button needs JavaScript.